User: anonymous   Login
Location: �chenoz-la-M�line
(47.6009°N, 6.1354°E)
Time: 11:55:35
(UTC+00:00)
Language:

USA 305 - Orbit

View from above orbital plane
View from above orbital plane
View from above satellite
View from above satellite

Ground track
Ground track

The orbit data is extracted from the following two-line orbital elements,

1 45873U 20046A   21103.09128444 0.00002400  00000-0  19689-3 0    03
2 45873  53.9748 188.1508 0005390 290.0595  69.9404 14.98771940    05
Epoch (UTC): 13 April 2021 02:11:26
Eccentricity: 0.0005390
inclination: 53.9748°
perigee height: 567 km
apogee height: 574 km
right ascension of ascending node: 188.1508°
argument of perigee: 290.0595°
revolutions per day: 14.98771940
mean anomaly at epoch: 69.9404°
orbit number at epoch: 0

The dashed part of the orbit path shows where the satellite is in the earth's shadow,  

DLR